Check out our new BloomSky Weather System.

Active alerts

Fort Bend, TX
  Details for Fort Bend, TX River Flood Warning  +1 additional alert
Houston, TX
  Details for Houston, TX Wind Advisory
Galveston, TX
  Details for Galveston, TX Wind Advisory


Thunder radar  blitzortung!


Rain radar more information rain snow radar


Visit our other weather sites:

Template documentation
and downloads

And another site



Weather Underground History page Text

Daily Summary for July 31, 2017 Units:  English    Metric   Both
« Previous Day
Next Day »
Daily Weekly Monthly Yearly Custom
  High: Low: Average:
Temperature: TemperatureF °F 71.8 °F 82.7 °F
Dew Point: DewpointF °F 66.7 °F 68.3 °F
Humidity: Humidity % 45 % 63 %
Wind Speed: WindSpeedMPH mph 0.0 mph 1.5 mph
Wind Gust: WindSpeedGustMPH mph - -
Wind:- - South
Pressure: PressureIn in 29.93 in -
Precipitation: 0.00 in    
Historical Graphs
 
 
Tabular Data for July 31, 2017
Time Temperature Dew Point Pressure Wind Wind Speed Wind Gust Humidity Rainfall Rate (Hourly)
TemperatureF °F DewpointF °F PressureIn in Calm     Humidity % HourlyPrecipIn in
00:03 79.5 °F 67.6 °F 29.96 in Calm   2.0 mph 67 % 0.00 in
00:08 79.3 °F 67.8 °F 29.96 in Calm   2.0 mph 68 % 0.00 in
00:13 79.3 °F 67.8 °F 29.96 in SE 1.0 mph 2.0 mph 68 % 0.00 in
00:18 79.3 °F 67.8 °F 29.96 in NNE 2.0 mph 2.0 mph 68 % 0.00 in
00:23 79.3 °F 67.5 °F 29.96 in Calm   6.0 mph 67 % 0.00 in
00:28 79.3 °F 67.5 °F 29.96 in ENE 2.0 mph 6.0 mph 67 % 0.00 in
00:33 79.3 °F 67.8 °F 29.96 in Calm   6.0 mph 68 % 0.00 in
00:38 79.3 °F 67.8 °F 29.96 in Calm   5.0 mph 68 % 0.00 in
00:43 79.2 °F 67.6 °F 29.96 in ENE 1.0 mph 5.0 mph 68 % 0.00 in
00:48 79.0 °F 67.5 °F 29.97 in East 2.0 mph 5.0 mph 68 % 0.00 in
00:53 79.0 °F 67.5 °F 29.97 in Calm   4.0 mph 68 % 0.00 in
00:59 79.0 °F 68.0 °F 29.97 in East 1.0 mph 4.0 mph 69 % 0.00 in
01:04 79.0 °F 68.0 °F 29.97 in East 2.0 mph 5.0 mph 69 % 0.00 in
01:09 78.8 °F 67.8 °F 29.97 in Calm   5.0 mph 69 % 0.00 in
01:14 78.4 °F 67.5 °F 29.98 in Calm   5.0 mph 69 % 0.00 in
01:19 78.4 °F 67.8 °F 29.98 in Calm   3.0 mph 70 % 0.00 in
01:24 78.1 °F 67.5 °F 29.98 in Calm   2.0 mph 70 % 0.00 in
01:29 78.1 °F 67.8 °F 29.98 in Calm   2.0 mph 71 % 0.00 in
01:34 77.7 °F 67.6 °F 29.98 in Calm   2.0 mph 71 % 0.00 in
01:39 77.5 °F 67.8 °F 29.98 in Calm   1.0 mph 72 % 0.00 in
01:44 77.4 °F 67.6 °F 29.98 in Calm   1.0 mph 72 % 0.00 in
01:49 77.2 °F 67.5 °F 29.98 in Calm   1.0 mph 72 % 0.00 in
01:54 76.8 °F 67.5 °F 29.98 in Calm   1.0 mph 73 % 0.00 in
01:59 76.6 °F 67.3 °F 29.98 in Calm   1.0 mph 73 % 0.00 in
02:04 76.6 °F 67.6 °F 29.98 in Calm   1.0 mph 74 % 0.00 in
02:09 76.5 °F 67.6 °F 29.98 in Calm   1.0 mph 74 % 0.00 in
02:14 76.5 °F 67.6 °F 29.98 in Calm   1.0 mph 74 % 0.00 in
02:19 76.5 °F 68.0 °F 29.98 in North 1.0 mph 2.0 mph 75 % 0.00 in
02:24 76.3 °F 67.8 °F 29.97 in Calm   2.0 mph 75 % 0.00 in
02:29 76.3 °F 67.8 °F 29.98 in Calm   2.0 mph 75 % 0.00 in
02:34 76.3 °F 67.8 °F 29.98 in Calm   2.0 mph 75 % 0.00 in
02:39 76.1 °F 67.6 °F 29.98 in Calm   2.0 mph 75 % 0.00 in
02:44 76.1 °F 67.6 °F 29.97 in Calm   2.0 mph 75 % 0.00 in
02:49 75.9 °F 67.8 °F 29.97 in Calm   2.0 mph 76 % 0.00 in
02:54 75.7 °F 67.6 °F 29.97 in Calm   2.0 mph 76 % 0.00 in
02:59 75.6 °F 67.8 °F 29.97 in Calm   1.0 mph 77 % 0.00 in
03:04 75.4 °F 67.6 °F 29.98 in Calm   1.0 mph 77 % 0.00 in
03:09 75.2 °F 67.8 °F 29.97 in Calm   1.0 mph 78 % 0.00 in
03:14 75.0 °F 67.6 °F 29.97 in Calm   2.0 mph 78 % 0.00 in
03:19 75.0 °F 67.6 °F 29.97 in NNE 1.0 mph 2.0 mph 78 % 0.00 in
03:24 74.8 °F 67.8 °F 29.97 in Calm   2.0 mph 79 % 0.00 in
03:29 74.8 °F 67.8 °F 29.97 in Calm   1.0 mph 79 % 0.00 in
03:34 74.8 °F 67.8 °F 29.97 in Calm   2.0 mph 79 % 0.00 in
03:39 74.7 °F 67.6 °F 29.97 in Calm   2.0 mph 79 % 0.00 in
03:44 74.7 °F 68.0 °F 29.97 in Calm   2.0 mph 80 % 0.00 in
03:49 74.7 °F 68.0 °F 29.97 in Calm   1.0 mph 80 % 0.00 in
03:54 74.7 °F 68.0 °F 29.98 in Calm   2.0 mph 80 % 0.00 in
04:00 74.5 °F 67.8 °F 29.97 in Calm   3.0 mph 80 % 0.00 in
04:05 74.5 °F 68.2 °F 29.97 in Calm   3.0 mph 81 % 0.00 in
04:10 74.3 °F 68.0 °F 29.97 in Calm   3.0 mph 81 % 0.00 in
04:15 74.1 °F 68.0 °F 29.97 in Calm   1.0 mph 81 % 0.00 in
04:20 74.1 °F 68.0 °F 29.97 in Calm   1.0 mph 81 % 0.00 in
04:25 74.1 °F 68.2 °F 29.97 in Calm   2.0 mph 82 % 0.00 in
04:30 73.9 °F 68.2 °F 29.97 in Calm   3.0 mph 82 % 0.00 in
04:35 73.9 °F 68.2 °F 29.97 in Calm   3.0 mph 82 % 0.00 in
04:40 73.9 °F 68.2 °F 29.97 in NNW 1.0 mph 3.0 mph 82 % 0.00 in
04:45 73.8 °F 68.0 °F 29.97 in NNW 1.0 mph 1.0 mph 82 % 0.00 in
04:50 73.8 °F 68.4 °F 29.97 in Calm   1.0 mph 83 % 0.00 in
04:55 73.6 °F 68.2 °F 29.97 in Calm   1.0 mph 83 % 0.00 in
05:00 73.6 °F 68.2 °F 29.97 in Calm   1.0 mph 83 % 0.00 in
05:05 73.4 °F 68.0 °F 29.97 in Calm   1.0 mph 83 % 0.00 in
05:10 73.2 °F 67.8 °F 29.97 in Calm   1.0 mph 83 % 0.00 in
05:15 73.2 °F 68.2 °F 29.97 in Calm   1.0 mph 84 % 0.00 in
05:20 73.0 °F 68.0 °F 29.97 in Calm   2.0 mph 84 % 0.00 in
05:25 72.9 °F 68.0 °F 29.97 in Calm   2.0 mph 85 % 0.00 in
05:30 72.9 °F 68.0 °F 29.97 in Calm   2.0 mph 85 % 0.00 in
05:35 72.7 °F 67.8 °F 29.97 in Calm   1.0 mph 85 % 0.00 in
05:40 72.7 °F 67.8 °F 29.97 in Calm   2.0 mph 85 % 0.00 in
05:45 72.7 °F 67.8 °F 29.97 in Calm   2.0 mph 85 % 0.00 in
05:50 72.7 °F 68.2 °F 29.98 in Calm   1.0 mph 86 % 0.00 in
05:55 72.5 °F 68.0 °F 29.98 in Calm   1.0 mph 86 % 0.00 in
06:00 72.3 °F 67.6 °F 29.98 in Calm   1.0 mph 85 % 0.00 in
06:05 72.3 °F 67.8 °F 29.98 in Calm   1.0 mph 86 % 0.00 in
06:10 72.3 °F 67.8 °F 29.98 in Calm   1.0 mph 86 % 0.00 in
06:15 72.1 °F 67.6 °F 29.98 in Calm   1.0 mph 86 % 0.00 in
06:20 72.0 °F 67.5 °F 29.98 in Calm   1.0 mph 86 % 0.00 in
06:25 72.0 °F 67.5 °F 29.98 in Calm   1.0 mph 86 % 0.00 in
06:30 72.0 °F 67.8 °F 29.98 in Calm   2.0 mph 87 % 0.00 in
06:35 72.0 °F 67.8 °F 29.98 in Calm   2.0 mph 87 % 0.00 in
06:40 72.0 °F 67.8 °F 29.98 in Calm   2.0 mph 87 % 0.00 in
06:45 71.8 °F 67.6 °F 29.99 in Calm   1.0 mph 87 % 0.00 in
06:50 72.0 °F 67.8 °F 29.99 in Calm   2.0 mph 87 % 0.00 in
06:55 72.0 °F 67.8 °F 29.99 in Calm   2.0 mph 87 % 0.00 in
07:00 72.0 °F 67.8 °F 29.99 in Calm   3.0 mph 87 % 0.00 in
07:05 72.0 °F 67.8 °F 29.99 in Calm   3.0 mph 87 % 0.00 in
07:10 72.0 °F 67.8 °F 29.99 in NW 1.0 mph 3.0 mph 87 % 0.00 in
07:15 72.1 °F 68.0 °F 29.99 in North 1.0 mph 3.0 mph 87 % 0.00 in
07:20 72.3 °F 68.2 °F 29.99 in Calm   2.0 mph 87 % 0.00 in
07:25 72.7 °F 68.5 °F 29.99 in WNW 1.0 mph 2.0 mph 87 % 0.00 in
07:30 73.0 °F 68.5 °F 29.99 in Calm   2.0 mph 86 % 0.00 in
07:35 73.8 °F 68.9 °F 29.99 in NW 2.0 mph 3.0 mph 85 % 0.00 in
07:40 74.5 °F 68.9 °F 29.99 in Calm   3.0 mph 83 % 0.00 in
07:45 75.0 °F 69.1 °F 29.99 in NNW 2.0 mph 3.0 mph 82 % 0.00 in
07:50 75.6 °F 69.3 °F 29.99 in Calm   3.0 mph 81 % 0.00 in
07:55 76.1 °F 69.1 °F 30.00 in Calm   4.0 mph 79 % 0.00 in
08:00 76.5 °F 69.1 °F 30.00 in Calm   4.0 mph 78 % 0.00 in
08:05 76.6 °F 68.9 °F 30.00 in NNW 2.0 mph 4.0 mph 77 % 0.00 in
08:10 76.8 °F 68.7 °F 30.00 in Calm   4.0 mph 76 % 0.00 in
08:15 77.2 °F 69.1 °F 30.00 in NNW 2.0 mph 4.0 mph 76 % 0.00 in
08:20 77.7 °F 69.6 °F 30.01 in Calm   4.0 mph 76 % 0.00 in
08:25 78.4 °F 69.4 °F 30.01 in NNW 1.0 mph 6.0 mph 74 % 0.00 in
08:30 79.0 °F 69.6 °F 30.01 in NNE 1.0 mph 6.0 mph 73 % 0.00 in
08:35 79.3 °F 69.1 °F 30.01 in NNW 1.0 mph 6.0 mph 71 % 0.00 in
08:40 79.5 °F 68.9 °F 30.01 in ENE 3.0 mph 6.0 mph 70 % 0.00 in
08:45 79.7 °F 69.1 °F 30.01 in East 2.0 mph 6.0 mph 70 % 0.00 in
08:50 80.1 °F 68.9 °F 30.02 in NNW 3.0 mph 6.0 mph 69 % 0.00 in
08:55 79.9 °F 69.3 °F 30.02 in ENE 3.0 mph 6.0 mph 70 % 0.00 in
09:00 80.4 °F 68.9 °F 30.02 in NNE 1.0 mph 6.0 mph 68 % 0.00 in
09:05 81.0 °F 69.8 °F 30.01 in NNW 1.0 mph 5.0 mph 69 % 0.00 in
09:10 81.5 °F 70.0 °F 30.01 in NW 3.0 mph 5.0 mph 68 % 0.00 in
09:15 81.7 °F 69.3 °F 30.01 in NE 1.0 mph 6.0 mph 66 % 0.00 in
09:20 82.0 °F 69.1 °F 30.02 in NE 1.0 mph 6.0 mph 65 % 0.00 in
09:25 82.2 °F 69.3 °F 30.02 in NW 1.0 mph 6.0 mph 65 % 0.00 in
09:30 82.8 °F 69.3 °F 30.02 in SE 2.0 mph 8.0 mph 64 % 0.00 in
09:35 82.8 °F 69.3 °F 30.02 in East 2.0 mph 8.0 mph 64 % 0.00 in
09:40 82.9 °F 69.4 °F 30.02 in NNE 4.0 mph 8.0 mph 64 % 0.00 in
09:45 83.3 °F 69.8 °F 30.02 in NNW 1.0 mph 6.0 mph 64 % 0.00 in
09:47 83.7 °F 70.7 °F 30.02 in NNW 1.0 mph 6.0 mph 65 % 0.00 in
09:52 83.8 °F 70.0 °F 30.02 in North 2.0 mph 6.0 mph 63 % 0.00 in
09:57 84.0 °F 69.6 °F 30.02 in ENE 2.0 mph 5.0 mph 62 % 0.00 in
10:02 84.4 °F 70.3 °F 30.02 in NNE 3.0 mph 5.0 mph 63 % 0.00 in
10:07 84.7 °F 69.8 °F 30.02 in NW 1.0 mph 5.0 mph 61 % 0.00 in
10:12 85.3 °F 70.3 °F 30.02 in NW 2.0 mph 5.0 mph 61 % 0.00 in
10:17 85.1 °F 70.5 °F 30.02 in NW 1.0 mph 5.0 mph 62 % 0.00 in
10:22 84.9 °F 70.0 °F 30.02 in SE 5.0 mph 7.0 mph 61 % 0.00 in
10:27 84.9 °F 70.0 °F 30.02 in NNW 2.0 mph 7.0 mph 61 % 0.00 in
10:32 85.5 °F 70.0 °F 30.02 in WNW 2.0 mph 7.0 mph 60 % 0.00 in
10:37 85.6 °F 70.2 °F 30.02 in Calm   6.0 mph 60 % 0.00 in
10:42 86.0 °F 70.5 °F 30.02 in NNW 2.0 mph 6.0 mph 60 % 0.00 in
10:47 86.2 °F 71.1 °F 30.02 in NNW 2.0 mph 6.0 mph 61 % 0.00 in
10:52 86.4 °F 70.3 °F 30.02 in NE 1.0 mph 6.0 mph 59 % 0.00 in
10:57 86.4 °F 70.9 °F 30.02 in ENE 3.0 mph 7.0 mph 60 % 0.00 in
11:02 86.7 °F 69.6 °F 30.02 in NNW 3.0 mph 7.0 mph 57 % 0.00 in
11:07 86.7 °F 69.6 °F 30.02 in NW 2.0 mph 8.0 mph 57 % 0.00 in
11:12 86.5 °F 70.5 °F 30.02 in NNW 5.0 mph 8.0 mph 59 % 0.00 in
11:17 86.5 °F 70.5 °F 30.02 in East 2.0 mph 8.0 mph 59 % 0.00 in
11:22 86.9 °F 69.8 °F 30.02 in NNE 2.0 mph 9.0 mph 57 % 0.00 in
11:27 87.1 °F 70.5 °F 30.02 in NE 2.0 mph 9.0 mph 58 % 0.00 in
11:32 86.5 °F 70.0 °F 30.02 in East 1.0 mph 9.0 mph 58 % 0.00 in
11:37 86.7 °F 69.1 °F 30.02 in NW 5.0 mph 9.0 mph 56 % 0.00 in
11:42 86.7 °F 70.7 °F 30.01 in North 5.0 mph 9.0 mph 59 % 0.00 in
11:47 86.9 °F 70.9 °F 30.01 in WNW 2.0 mph 9.0 mph 59 % 0.00 in
11:52 87.4 °F 69.8 °F 30.01 in East 3.0 mph 8.0 mph 56 % 0.00 in
11:53 87.6 °F 70.0 °F 30.01 in WNW 3.0 mph 8.0 mph 56 % 0.00 in
11:58 87.6 °F 70.0 °F 30.01 in North 3.0 mph 8.0 mph 56 % 0.00 in
12:04 88.0 °F 69.3 °F 30.01 in NNW 2.0 mph 8.0 mph 54 % 0.00 in
12:09 88.0 °F 70.3 °F 30.01 in NW 4.0 mph 8.0 mph 56 % 0.00 in
12:14 88.0 °F 69.8 °F 30.01 in NNW 4.0 mph 10.0 mph 55 % 0.00 in
12:19 88.2 °F 70.5 °F 30.00 in ESE 2.0 mph 10.0 mph 56 % 0.00 in
12:24 88.7 °F 70.5 °F 30.00 in East 6.0 mph 10.0 mph 55 % 0.00 in
12:29 88.5 °F 70.3 °F 30.00 in NW 2.0 mph 9.0 mph 55 % 0.00 in
12:34 88.5 °F 69.8 °F 30.00 in NW 8.0 mph 9.0 mph 54 % 0.00 in
12:39 88.2 °F 69.4 °F 30.00 in North 2.0 mph 9.0 mph 54 % 0.00 in
12:44 88.2 °F 70.0 °F 29.99 in Calm   9.0 mph 55 % 0.00 in
12:49 88.9 °F 70.2 °F 30.00 in SSE 2.0 mph 9.0 mph 54 % 0.00 in
12:54 88.9 °F 68.9 °F 29.99 in ENE 6.0 mph 10.0 mph 52 % 0.00 in
12:59 89.1 °F 69.6 °F 29.99 in NNW 5.0 mph 10.0 mph 53 % 0.00 in
13:03 89.1 °F 69.1 °F 29.99 in NNW 5.0 mph 10.0 mph 52 % 0.00 in
13:08 89.2 °F 69.3 °F 29.99 in WNW 1.0 mph 8.0 mph 52 % 0.00 in
13:13 89.4 °F 70.5 °F 29.99 in East 2.0 mph 9.0 mph 54 % 0.00 in
13:18 89.8 °F 69.3 °F 29.99 in WNW 4.0 mph 9.0 mph 51 % 0.00 in
13:23 90.3 °F 70.3 °F 29.99 in NNW 1.0 mph 10.0 mph 52 % 0.00 in
13:28 90.7 °F 68.4 °F 29.99 in ENE 6.0 mph 10.0 mph 48 % 0.00 in
13:33 90.0 °F 68.2 °F 29.99 in WNW 1.0 mph 10.0 mph 49 % 0.00 in
13:38 90.1 °F 68.9 °F 29.98 in East 9.0 mph 10.0 mph 50 % 0.00 in
13:43 90.0 °F 69.4 °F 29.98 in ENE 5.0 mph 12.0 mph 51 % 0.00 in
13:48 90.1 °F 69.6 °F 29.98 in Calm   12.0 mph 51 % 0.00 in
13:53 90.7 °F 67.6 °F 29.98 in ENE 4.0 mph 12.0 mph 47 % 0.00 in
13:58 90.7 °F 68.9 °F 29.98 in NNW 3.0 mph 7.0 mph 49 % 0.00 in
14:03 90.3 °F 67.3 °F 29.98 in NW 2.0 mph 8.0 mph 47 % 0.00 in
14:08 90.7 °F 67.1 °F 29.98 in North 11.0 mph 11.0 mph 46 % 0.00 in
14:13 90.7 °F 68.4 °F 29.98 in NW 7.0 mph 13.0 mph 48 % 0.00 in
14:18 90.9 °F 69.6 °F 29.98 in NW 1.0 mph 13.0 mph 50 % 0.00 in
14:23 90.7 °F 67.6 °F 29.97 in SSE 1.0 mph 13.0 mph 47 % 0.00 in
14:28 90.9 °F 70.2 °F 29.97 in NW 5.0 mph 10.0 mph 51 % 0.00 in
14:33 90.9 °F 67.8 °F 29.97 in WNW 2.0 mph 11.0 mph 47 % 0.00 in
14:38 90.9 °F 67.3 °F 29.97 in NNW 4.0 mph 11.0 mph 46 % 0.00 in
14:43 90.7 °F 68.9 °F 29.97 in NW 1.0 mph 11.0 mph 49 % 0.00 in
14:48 91.6 °F 70.9 °F 29.96 in East 6.0 mph 8.0 mph 51 % 0.00 in
14:53 91.2 °F 68.7 °F 29.96 in West 2.0 mph 11.0 mph 48 % 0.00 in
14:58 91.2 °F 70.0 °F 29.96 in Calm   11.0 mph 50 % 0.00 in
15:04 91.2 °F 69.4 °F 29.96 in NE 3.0 mph 11.0 mph 49 % 0.00 in
15:09 91.0 °F 68.0 °F 29.96 in NW 2.0 mph 9.0 mph 47 % 0.00 in
15:14 91.2 °F 69.4 °F 29.96 in NNW 1.0 mph 9.0 mph 49 % 0.00 in
15:19 91.8 °F 69.3 °F 29.96 in NW 6.0 mph 11.0 mph 48 % 0.00 in
15:24 92.1 °F 68.4 °F 29.96 in NE 2.0 mph 11.0 mph 46 % 0.00 in
15:29 91.9 °F 68.2 °F 29.95 in NW 2.0 mph 11.0 mph 46 % 0.00 in
15:34 92.1 °F 68.4 °F 29.95 in ENE 4.0 mph 9.0 mph 46 % 0.00 in
15:39 92.1 °F 68.4 °F 29.95 in NNW 1.0 mph 10.0 mph 46 % 0.00 in
15:44 92.5 °F 70.0 °F 29.95 in ENE 4.0 mph 10.0 mph 48 % 0.00 in
15:49 91.9 °F 68.9 °F 29.95 in NNW 3.0 mph 10.0 mph 47 % 0.00 in
15:54 91.6 °F 69.1 °F 29.95 in Calm   9.0 mph 48 % 0.00 in
15:59 91.8 °F 68.7 °F 29.95 in NNE 4.0 mph 9.0 mph 47 % 0.00 in
16:04 91.9 °F 68.9 °F 29.94 in North 4.0 mph 9.0 mph 47 % 0.00 in
16:09 91.8 °F 69.3 °F 29.94 in WNW 2.0 mph 10.0 mph 48 % 0.00 in
16:14 91.8 °F 68.7 °F 29.94 in East 4.0 mph 10.0 mph 47 % 0.00 in
16:19 92.1 °F 68.9 °F 29.94 in ENE 4.0 mph 10.0 mph 47 % 0.00 in
16:24 92.3 °F 69.8 °F 29.94 in WNW 3.0 mph 10.0 mph 48 % 0.00 in
16:29 92.7 °F 70.2 °F 29.94 in ENE 3.0 mph 10.0 mph 48 % 0.00 in
16:31 92.7 °F 68.9 °F 29.94 in NE 2.0 mph 9.0 mph 46 % 0.00 in
16:36 91.9 °F 69.4 °F 29.94 in Calm   9.0 mph 48 % 0.00 in
16:41 91.8 °F 67.5 °F 29.94 in East 4.0 mph 10.0 mph 45 % 0.00 in
16:46 91.6 °F 69.1 °F 29.94 in NNW 3.0 mph 10.0 mph 48 % 0.00 in
16:51 91.9 °F 70.0 °F 29.94 in NW 3.0 mph 10.0 mph 49 % 0.00 in
16:56 92.3 °F 69.8 °F 29.94 in NNW 2.0 mph 9.0 mph 48 % 0.00 in
17:01 92.1 °F 69.6 °F 29.94 in ENE 3.0 mph 9.0 mph 48 % 0.00 in
17:06 92.1 °F 69.6 °F 29.94 in ENE 2.0 mph 9.0 mph 48 % 0.00 in
17:11 91.9 °F 68.9 °F 29.94 in NNW 1.0 mph 8.0 mph 47 % 0.00 in
17:16 91.9 °F 68.2 °F 29.94 in ENE 2.0 mph 8.0 mph 46 % 0.00 in
17:21 91.6 °F 68.5 °F 29.94 in East 1.0 mph 6.0 mph 47 % 0.00 in
17:22 91.6 °F 69.8 °F 29.94 in ESE 6.0 mph 6.0 mph 49 % 0.00 in
17:27 91.9 °F 69.4 °F 29.94 in NW 5.0 mph 9.0 mph 48 % 0.00 in
17:32 91.6 °F 68.5 °F 29.94 in West 1.0 mph 9.0 mph 47 % 0.00 in
17:37 91.2 °F 68.7 °F 29.94 in ESE 6.0 mph 9.0 mph 48 % 0.00 in
17:42 91.0 °F 68.5 °F 29.94 in ESE 2.0 mph 9.0 mph 48 % 0.00 in
17:48 91.2 °F 67.5 °F 29.93 in ENE 4.0 mph 8.0 mph 46 % 0.00 in
17:53 91.4 °F 68.9 °F 29.93 in East 1.0 mph 8.0 mph 48 % 0.00 in
17:58 91.6 °F 68.5 °F 29.93 in East 1.0 mph 8.0 mph 47 % 0.00 in
18:03 91.8 °F 68.0 °F 29.93 in North 2.0 mph 8.0 mph 46 % 0.00 in
18:08 91.6 °F 67.8 °F 29.93 in NNW 3.0 mph 9.0 mph 46 % 0.00 in
18:13 91.0 °F 67.5 °F 29.93 in Calm   9.0 mph 46 % 0.00 in
18:18 91.0 °F 67.5 °F 29.93 in NE 1.0 mph 9.0 mph 46 % 0.00 in
18:23 91.4 °F 67.6 °F 29.93 in Calm   6.0 mph 46 % 0.00 in
18:28 91.6 °F 67.8 °F 29.93 in ESE 2.0 mph 6.0 mph 46 % 0.00 in
18:33 91.4 °F 67.6 °F 29.93 in Calm   6.0 mph 46 % 0.00 in
18:38 91.2 °F 66.9 °F 29.93 in ENE 5.0 mph 8.0 mph 45 % 0.00 in
18:43 91.0 °F 66.7 °F 29.93 in ESE 2.0 mph 8.0 mph 45 % 0.00 in
18:45 91.0 °F 66.7 °F 29.93 in NE 1.0 mph 8.0 mph 45 % 0.00 in
18:50 91.0 °F 66.7 °F 29.93 in ESE 1.0 mph 8.0 mph 45 % 0.00 in
18:55 91.2 °F 67.5 °F 29.93 in WNW 5.0 mph 8.0 mph 46 % 0.00 in
19:00 91.2 °F 67.5 °F 29.93 in East 6.0 mph 7.0 mph 46 % 0.00 in
19:03 91.0 °F 68.0 °F 29.93 in SE 2.0 mph 6.0 mph 47 % 0.00 in
19:05 91.0 °F 68.0 °F 29.93 in Calm   6.0 mph 47 % 0.00 in
19:10 90.9 °F 67.8 °F 29.93 in ESE 3.0 mph 6.0 mph 47 % 0.00 in
19:15 90.3 °F 67.3 °F 29.94 in SE 3.0 mph 7.0 mph 47 % 0.00 in
19:20 90.1 °F 67.8 °F 29.94 in East 2.0 mph 8.0 mph 48 % 0.00 in
19:25 90.0 °F 67.6 °F 29.94 in SE 2.0 mph 8.0 mph 48 % 0.00 in
19:30 89.4 °F 67.8 °F 29.94 in NE 2.0 mph 8.0 mph 49 % 0.00 in
19:35 89.1 °F 68.0 °F 29.94 in NE 4.0 mph 6.0 mph 50 % 0.00 in
19:40 88.9 °F 67.8 °F 29.94 in SSE 2.0 mph 6.0 mph 50 % 0.00 in
19:45 88.5 °F 67.5 °F 29.94 in East 1.0 mph 6.0 mph 50 % 0.00 in
19:50 88.3 °F 68.0 °F 29.94 in ENE 1.0 mph 6.0 mph 51 % 0.00 in
19:55 88.0 °F 68.2 °F 29.94 in ESE 1.0 mph 5.0 mph 52 % 0.00 in
20:00 87.6 °F 67.8 °F 29.94 in ESE 1.0 mph 6.0 mph 52 % 0.00 in
20:05 87.4 °F 68.2 °F 29.95 in ESE 2.0 mph 6.0 mph 53 % 0.00 in
20:10 87.3 °F 68.0 °F 29.95 in ESE 2.0 mph 6.0 mph 53 % 0.00 in
20:15 86.9 °F 68.2 °F 29.95 in East 1.0 mph 5.0 mph 54 % 0.00 in
20:20 86.5 °F 68.0 °F 29.95 in Calm   5.0 mph 54 % 0.00 in
20:25 86.4 °F 67.8 °F 29.95 in Calm   4.0 mph 54 % 0.00 in
20:30 86.2 °F 68.2 °F 29.95 in ENE 2.0 mph 4.0 mph 55 % 0.00 in
20:35 86.0 °F 68.0 °F 29.95 in Calm   4.0 mph 55 % 0.00 in
20:40 85.6 °F 67.6 °F 29.95 in Calm   4.0 mph 55 % 0.00 in
20:45 85.5 °F 67.5 °F 29.95 in Calm   4.0 mph 55 % 0.00 in
20:50 84.9 °F 67.5 °F 29.95 in Calm   3.0 mph 56 % 0.00 in
20:55 84.7 °F 67.8 °F 29.95 in Calm   3.0 mph 57 % 0.00 in
21:00 84.6 °F 67.6 °F 29.95 in Calm   1.0 mph 57 % 0.00 in
21:05 84.2 °F 67.3 °F 29.95 in Calm   1.0 mph 57 % 0.00 in
21:10 83.8 °F 67.5 °F 29.95 in Calm   1.0 mph 58 % 0.00 in
21:15 83.7 °F 67.8 °F 29.95 in Calm   1.0 mph 59 % 0.00 in
21:20 83.5 °F 67.6 °F 29.96 in Calm   1.0 mph 59 % 0.00 in
21:25 83.5 °F 67.6 °F 29.96 in Calm   1.0 mph 59 % 0.00 in
21:30 83.3 °F 68.0 °F 29.96 in Calm   1.0 mph 60 % 0.00 in
21:35 82.9 °F 68.2 °F 29.96 in Calm   1.0 mph 61 % 0.00 in
21:40 82.8 °F 68.0 °F 29.96 in Calm   1.0 mph 61 % 0.00 in
21:45 82.6 °F 68.2 °F 29.96 in Calm   1.0 mph 62 % 0.00 in
21:50 82.0 °F 67.6 °F 29.96 in Calm     62 % 0.00 in
21:55 81.9 °F 68.0 °F 29.96 in Calm     63 % 0.00 in
22:01 81.5 °F 67.6 °F 29.96 in Calm     63 % 0.00 in
22:55 79.5 °F 68.0 °F 29.97 in Calm   -999.0 mph 68 % 0.00 in
23:00 79.5 °F 68.0 °F 29.97 in Calm     68 % 0.00 in
23:05 79.3 °F 67.8 °F 29.97 in Calm     68 % 0.00 in
23:10 79.2 °F 68.2 °F 29.97 in Calm     69 % 0.00 in
23:15 79.0 °F 68.0 °F 29.97 in Calm     69 % 0.00 in
23:20 78.8 °F 68.2 °F 29.97 in Calm     70 % 0.00 in
23:25 78.6 °F 68.0 °F 29.97 in Calm     70 % 0.00 in
23:30 78.6 °F 68.0 °F 29.97 in Calm     70 % 0.00 in
23:35 78.6 °F 68.0 °F 29.97 in Calm     70 % 0.00 in
23:40 78.6 °F 68.4 °F 29.97 in Calm     71 % 0.00 in
23:45 78.8 °F 68.2 °F 29.97 in Calm     70 % 0.00 in
23:50 78.6 °F 68.4 °F 29.97 in Calm     71 % 0.00 in
23:55 78.6 °F 68.4 °F 29.97 in Calm     71 % 0.00 in
Spring, Texas: Villages of Bridgestone
Compliments of Weather Underground - 2.75 mb

Script developed by  Jim McMurry - jmcmurry@mwt.net Adapted for the template by  Wim van der Kuil - Leuven-Template.eu

You find our weather info also at:

UK Metoffice

WeatherCloud

Weather Underground

Mid-South Weather Network

AWEKAS

Citizen Weather Observer Program (CWOP)

HAMweather, WeatherForYou, PWS Weather

Equipment we use:

Weather-station
Davis Vantage Vue

Weather-program
Meteohub

Weather-server
Debian 7.9 x86 (Guest)

Provider
DreamHost

Davis Vantage Vue

Meteohub

Debian 7.9 x86 (Guest)

DreamHost